Regional Weather Roundup
Issued by NWS

Home | Current Version | Previous Version | Text Only | Print | Product List | Glossary On
Versions: 1 2 3 4 5 6 7 8 9 10 11 12 13 14 15 16 17 18 19 20 21 22 23 24 25 26 27 28 29 30 31 32 33 34 35 36 37 38 39 40 41 42 43 44 45 46 47 48 49 50
000
ASUS43 KDTX 280301
RWRMI
MICHIGAN HOURLY REGIONAL WEATHER ROUNDUP
NATIONAL WEATHER SERVICE DETROIT/PONTIAC MI
1000 PM EST THU NOV 27 2014

NOTE: "FAIR" INDICATES FEW OR NO CLOUDS BELOW 12,000 FEET WITH NO
SIGNIFICANT WEATHER AND/OR OBSTRUCTION TO VISIBILITY.

MIZ047>049-052>055-059>063-066>070-074>076-081>083-280400-
SOUTHEAST LOWER MICHIGAN

CITY           SKY/WX    TMP DP  RH WIND       PRES   REMARKS
ADRIAN         CLOUDY    24  16  71 NW8       30.32R WCI  15
ALMA           PTCLDY    18   7  62 NW6       30.33S WCI  10
ANN ARBOR      MOCLDY    24  13  62 NW12      30.29S WCI  13
BAD AXE        MOCLDY    21  12  67 NW13      30.27R WCI   9
CARO           MOCLDY    19  12  73 W10       30.28S WCI   8
DETROIT CITY   CLOUDY    29  17  61 NW6       30.28R WCI  23
DETROIT        FLURRIES  27  18  69 NW10      30.30R WCI  17
FLINT          CLOUDY    24  10  55 NW16      30.30S WCI  11
GROSSE ILE     CLOUDY    28  19  69 W8        30.28R WCI  20
HILLSDALE      CLOUDY    23  16  74 NW6       30.29S WCI  16
HOWELL         CLOUDY    22  14  70 NW6       30.29R WCI  15

CITY           SKY/WX    TMP DP  RH WIND       PRES   REMARKS
JACKSON        MOCLDY    20  13  74 W8        30.31R WCI  10
LAMBERTVILLE   CLOUDY    30  23  74 NW7       30.31R WCI  23
LANSING        MOCLDY    21   9  59 NW8       30.32R WCI  11
LAPEER         CLOUDY    23  12  64 NW15G23   30.28R WCI  10
MASON          CLOUDY    23  13  64 NW10G16   30.31R WCI  12
MONROE         LGT SNOW  27  21  80 NW12G22   30.29R WCI  16
MT. CLEMENS    MOCLDY    26  18  70 NW10      30.25R WCI  17
PONTIAC        FLURRIES  23  10  57 NW16      30.26R WCI  10
PORT HOPE        N/A     22   9  57 W13G23    30.25R WCI  10
PORT HURON     CLOUDY    25  14  63 NW13G18   30.26R WCI  13
TRI CITIES     CLOUDY    22   9  57 W12       30.32R WCI  10
TROY           CLOUDY    28  14  55 W13G21    30.30R WCI  18
SAGINAW HB     MOCLDY    23  10  58 W14       30.31R WCI  11
$$
MIZ043>046-050>051-056>058-064>065-071>073-077>080-280400-
SOUTHWEST LOWER MICHIGAN

CITY           SKY/WX    TMP DP  RH WIND       PRES   REMARKS
BATTLE CREEK   CLOUDY    23  14  68 N6        30.33R WCI  16
BENTON HARBOR  CLOUDY    25  12  58 NW7       30.36S WCI  17
BIG RAPIDS     FLURRIES  19  16  87 CALM      30.31S
COLDWATER      CLOUDY    25  17  72 NW8       30.32S WCI  16
FREMONT        CLOUDY    19  12  73 CALM      30.33F
HOLLAND        CLOUDY    22  16  78 NE5       30.36S WCI  16
GRAND RAPIDS   FLURRIES  20  11  68 NW7       30.34S WCI  11
IONIA          CLOUDY    22  10  59 NW9       30.32S WCI  12
KALAMAZOO      FLURRIES  22  16  78 N8        30.34S WCI  12
LUDINGTON      CLOUDY    19  11  68 NW5       30.35S WCI  13
MARSHALL       CLOUDY    21  13  70 NW6       30.32R WCI  13
MOUNT PLEASANT PTCLDY    19   8  61 W6        30.31S WCI  11
MUSKEGON       FLURRIES  22  11  62 N6        30.36S WCI  14
SOUTH HAVEN    FLURRIES  26  16  66 N10G16    30.35S WCI  16
$$
MIZ016>042-280400-
NORTHERN LOWER MICHIGAN

CITY           SKY/WX    TMP DP  RH WIND       PRES   REMARKS
ALPENA         CLOUDY    16   9  74 W9G18     30.26R WCI   4
BEAVER ISLAND  CLOUDY    19  10  70 NW8       30.31S WCI   8
BELLAIRE       LGT SNOW  19  14  82 CALM      30.32R
CADILLAC       CLOUDY    15  11  83 W5        30.26S WCI   8
CHARLEVOIX     CLOUDY    19   9  66 N12G20    30.32S WCI   6
FRANKFORT      FLURRIES  20  13  74 NW7       30.33F WCI  11
GAYLORD        LGT SNOW  14  11  87 NW7       30.24R VSB 3/4 WCI   4
GRAYLING       CLOUDY    16  10  80 W6        30.26S WCI   7
HARBOR SPRINGS CLOUDY    18  10  70 W5        30.29R WCI  11
HOUGHTON LAKE  LGT SNOW  17  13  84 NW8       30.26S FOG     WCI   7
MANISTEE       CLOUDY    19   9  63 W6        30.33F WCI  11
OSCODA         CLOUDY    18   8  65 W6        30.27R WCI  10
PELLSTON       CLOUDY    17   8  67 NW9       30.29R WCI   6
ROGERS CITY    LGT SNOW  17  12  82 W10       30.26S WCI   5
TRAVERSE CITY  FLURRIES  20  11  68 W9        30.31R WCI   9
$$
MIZ007>008-015-280400-
EASTERN UPPER MICHIGAN

CITY           SKY/WX    TMP DP  RH WIND       PRES   REMARKS
KINROSS        CLOUDY     9   7  92 NE5       30.25S WCI   0
MACKINAC ISLAN PTCLDY    16  10  79 W13G18    30.27R WCI   2
NEWBERRY       CLOUDY    12  10  91 W7        30.26S WCI   1
S. S. MARIE    PTCLDY     7   0  73 N6        30.27R WCI  -3
MUNISING         N/A     14   7  73 SW6       30.31S WCI   5
$$
MIZ004>006-011>014-085-280400-
CENTRAL UPPER MICHIGAN

CITY           SKY/WX    TMP DP  RH WIND       PRES   REMARKS
MANISTIQUE     CLOUDY     9   4  82 W8        30.32R WCI  -4
ESCANABA       CLEAR      3   1  92 W7        30.34S WCI  -9
MENOMINEE      PTCLDY     1  -2  85 CALM      30.35F
SAWYER-GWINN   MOCLDY     1  -2  85 W7        30.28F WCI -11
$$
MIZ001>003-009>011-084-280400-
WESTERN UPPER MICHIGAN

CITY           SKY/WX    TMP DP  RH WIND       PRES   REMARKS
IRON MOUNTAIN  PTCLDY    -4  -8  83 CALM      30.29F
HOUGHTON       CLOUDY     7   2  80 S7        30.25F WCI  -5
COPPER HARBOR    N/A     16  11  80 VRB3G16   30.28F
IRONWOOD       PTCLDY    -8 -15  71 CALM      30.26F
$$

ABBREVIATIONS USED IN REMARKS
   TC - TEMPERATURE IN CELSIUS
  WCI - WIND CHILL INDEX
   HX - HEAT INDEX
  VSB - VISIBILITY



USA.gov is the U.S. government's official web portal to all federal, state and local government web resources and services.